Time,TemperatureF,DewpointF,PressureIn,WindDirection,WindDirectionDegrees,WindSpeedMPH,WindSpeedGustMPH,Humidity,HourlyPrecipIn,Conditions,Clouds,dailyrainin,SoftwareType,DateUTC
2013-02-01 00:00:00,52.5,43.0,30.20,North,9,0.0,0.0,70,0.00,,---,0.00,VWS V13.01,2013-02-01 05:00:00,
2013-02-01 00:01:00,52.5,43.0,30.20,North,9,0.0,0.0,70,0.00,,---,0.00,VWS V13.01,2013-02-01 05:01:00,
2013-02-01 00:03:00,52.5,43.0,30.20,North,9,0.0,0.0,70,0.00,,---,0.00,VWS V13.01,2013-02-01 05:03:00,
2013-02-01 00:04:00,52.4,42.9,30.20,North,9,0.0,0.0,70,0.00,,---,0.00,VWS V13.01,2013-02-01 05:04:00,
2013-02-01 00:09:00,52.3,42.8,30.20,North,9,0.0,0.0,70,0.00,,---,0.00,VWS V13.01,2013-02-01 05:09:00,
2013-02-01 00:14:00,52.1,43.0,30.21,North,9,0.0,0.0,71,0.00,,---,0.00,VWS V13.01,2013-02-01 05:14:00,
2013-02-01 00:19:00,51.9,42.8,30.21,North,9,0.0,0.0,71,0.00,,---,0.00,VWS V13.01,2013-02-01 05:19:00,
2013-02-01 00:24:00,51.6,42.9,30.21,North,9,0.0,0.0,72,0.00,,---,0.00,VWS V13.01,2013-02-01 05:24:00,
2013-02-01 00:29:00,51.3,43.0,30.21,North,9,0.0,0.0,73,0.00,,---,0.00,VWS V13.01,2013-02-01 05:29:00,
2013-02-01 00:34:00,51.1,42.8,30.21,North,9,0.0,0.0,73,0.00,,---,0.00,VWS V13.01,2013-02-01 05:34:00,
2013-02-01 00:39:00,50.9,42.9,30.20,North,9,0.0,0.0,74,0.00,,---,0.00,VWS V13.01,2013-02-01 05:39:00,
2013-02-01 00:44:00,50.7,42.7,30.20,North,9,0.0,0.0,74,0.00,,---,0.00,VWS V13.01,2013-02-01 05:44:00,
2013-02-01 00:49:00,50.6,42.6,30.20,North,9,0.0,0.0,74,0.00,,---,0.00,VWS V13.01,2013-02-01 05:49:00,
2013-02-01 00:54:00,50.4,42.8,30.20,North,9,0.0,0.0,75,0.00,,---,0.00,VWS V13.01,2013-02-01 05:54:00,
2013-02-01 00:59:00,50.1,42.5,30.20,North,9,0.0,0.0,75,0.00,,---,0.00,VWS V13.01,2013-02-01 05:59:00,
2013-02-01 01:04:00,49.9,42.3,30.19,North,9,0.0,0.0,75,0.00,,---,0.00,VWS V13.01,2013-02-01 06:04:00,
2013-02-01 01:09:00,49.6,42.4,30.19,North,9,0.0,0.0,76,0.00,,---,0.00,VWS V13.01,2013-02-01 06:09:00,
2013-02-01 01:14:00,49.4,42.8,30.19,North,9,0.0,0.0,78,0.00,,---,0.00,VWS V13.01,2013-02-01 06:14:00,
2013-02-01 01:19:00,49.2,42.6,30.19,North,9,0.0,0.0,78,0.00,,---,0.00,VWS V13.01,2013-02-01 06:19:00,
2013-02-01 01:25:00,49.0,43.1,30.20,North,9,0.0,0.0,80,0.00,,---,0.00,VWS V13.01,2013-02-01 06:25:00,
2013-02-01 01:30:00,48.8,42.9,30.20,North,9,0.0,0.0,80,0.00,,---,0.00,VWS V13.01,2013-02-01 06:30:00,
2013-02-01 01:35:00,48.7,42.8,30.20,North,9,0.0,0.0,80,0.00,,---,0.00,VWS V13.01,2013-02-01 06:35:00,
2013-02-01 01:40:00,48.6,42.7,30.20,North,9,0.0,0.0,80,0.00,,---,0.00,VWS V13.01,2013-02-01 06:40:00,
2013-02-01 01:45:00,48.4,42.2,30.20,North,9,0.0,0.0,79,0.00,,---,0.00,VWS V13.01,2013-02-01 06:45:00,
2013-02-01 01:50:00,48.3,42.1,30.20,North,9,0.0,0.0,79,0.00,,---,0.00,VWS V13.01,2013-02-01 06:50:00,
2013-02-01 01:55:00,48.2,42.3,30.20,North,9,0.0,0.0,80,0.00,,---,0.00,VWS V13.01,2013-02-01 06:55:00,
2013-02-01 02:00:00,48.0,42.1,30.20,North,9,0.0,0.0,80,0.00,,---,0.00,VWS V13.01,2013-02-01 07:00:00,
2013-02-01 02:05:00,47.8,41.6,30.20,North,9,0.0,0.0,79,0.00,,---,0.00,VWS V13.01,2013-02-01 07:05:00,
2013-02-01 02:10:00,47.7,41.8,30.20,North,9,0.0,0.0,80,0.00,,---,0.00,VWS V13.01,2013-02-01 07:10:00,
2013-02-01 02:15:00,47.5,41.7,30.20,North,9,0.0,0.0,80,0.00,,---,0.00,VWS V13.01,2013-02-01 07:15:00,
2013-02-01 02:20:00,47.3,41.1,30.21,North,9,0.0,0.0,79,0.00,,---,0.00,VWS V13.01,2013-02-01 07:20:00,
2013-02-01 02:25:00,47.2,41.0,30.21,North,9,0.0,0.0,79,0.00,,---,0.00,VWS V13.01,2013-02-01 07:25:00,
2013-02-01 02:30:00,47.1,40.3,30.21,North,9,0.0,0.0,77,0.00,,---,0.00,VWS V13.01,2013-02-01 07:30:00,
2013-02-01 02:35:00,47.1,39.9,30.21,North,9,0.0,0.0,76,0.00,,---,0.00,VWS V13.01,2013-02-01 07:35:00,
2013-02-01 02:40:00,47.1,39.9,30.21,North,9,0.0,0.0,76,0.00,,---,0.00,VWS V13.01,2013-02-01 07:40:00,
2013-02-01 02:45:00,47.0,39.8,30.20,North,9,0.0,0.0,76,0.00,,---,0.00,VWS V13.01,2013-02-01 07:45:00,
2013-02-01 02:50:00,46.9,39.7,30.20,North,9,0.0,0.0,76,0.00,,---,0.00,VWS V13.01,2013-02-01 07:50:00,
2013-02-01 02:55:00,46.7,39.2,30.20,North,9,0.0,0.0,75,0.00,,---,0.00,VWS V13.01,2013-02-01 07:55:00,
2013-02-01 03:00:00,46.6,39.1,30.20,North,9,0.0,0.0,75,0.00,,---,0.00,VWS V13.01,2013-02-01 08:00:00,
2013-02-01 03:06:00,46.6,38.8,30.20,North,9,0.0,0.0,74,0.00,,---,0.00,VWS V13.01,2013-02-01 08:06:00,
2013-02-01 03:11:00,46.7,38.2,30.21,NNE,15,0.0,0.0,72,0.00,,---,0.00,VWS V13.01,2013-02-01 08:11:00,
2013-02-01 03:16:00,46.8,38.3,30.20,NNE,20,0.0,0.0,72,0.00,,---,0.00,VWS V13.01,2013-02-01 08:16:00,
2013-02-01 03:21:00,46.9,37.6,30.21,NNE,19,0.0,0.0,70,0.00,,---,0.00,VWS V13.01,2013-02-01 08:21:00,
2013-02-01 03:26:00,47.1,37.5,30.21,NNE,19,0.0,0.0,69,0.00,,---,0.00,VWS V13.01,2013-02-01 08:26:00,
2013-02-01 03:31:00,47.3,36.9,30.21,NNE,24,0.0,0.0,67,0.00,,---,0.00,VWS V13.01,2013-02-01 08:31:00,
2013-02-01 03:36:00,47.5,36.7,30.21,NNE,25,0.0,0.0,66,0.00,,---,0.00,VWS V13.01,2013-02-01 08:36:00,
2013-02-01 03:41:00,47.5,36.3,30.20,NNE,28,0.0,0.0,65,0.00,,---,0.00,VWS V13.01,2013-02-01 08:41:00,
2013-02-01 03:46:00,47.5,36.3,30.21,NNE,28,0.0,0.0,65,0.00,,---,0.00,VWS V13.01,2013-02-01 08:46:00,
2013-02-01 03:52:00,47.5,35.9,30.21,NNE,30,0.0,0.0,64,0.00,,---,0.00,VWS V13.01,2013-02-01 08:52:00,
2013-02-01 03:57:00,47.5,35.9,30.21,NNE,30,0.0,0.0,64,0.00,,---,0.00,VWS V13.01,2013-02-01 08:57:00,
2013-02-01 04:02:00,47.5,35.9,30.21,NNE,29,0.0,0.0,64,0.00,,---,0.00,VWS V13.01,2013-02-01 09:02:00,
2013-02-01 04:07:00,47.5,35.5,30.21,NNE,32,0.0,0.0,63,0.00,,---,0.00,VWS V13.01,2013-02-01 09:07:00,
2013-02-01 04:12:00,47.5,35.1,30.21,NE,36,0.0,0.0,62,0.00,,---,0.00,VWS V13.01,2013-02-01 09:12:00,
2013-02-01 04:17:00,47.5,35.5,30.22,NE,36,0.0,0.0,63,0.00,,---,0.00,VWS V13.01,2013-02-01 09:17:00,
2013-02-01 04:22:00,47.4,35.5,30.22,NE,34,0.0,0.0,63,0.00,,---,0.00,VWS V13.01,2013-02-01 09:22:00,
2013-02-01 04:27:00,47.3,35.4,30.22,NE,36,0.0,0.0,63,0.00,,---,0.00,VWS V13.01,2013-02-01 09:27:00,
2013-02-01 04:32:00,47.1,35.6,30.22,NE,38,0.0,0.0,64,0.00,,---,0.00,VWS V13.01,2013-02-01 09:32:00,
2013-02-01 04:37:00,47.0,35.5,30.22,NE,38,0.0,0.0,64,0.00,,---,0.00,VWS V13.01,2013-02-01 09:37:00,
2013-02-01 04:42:00,46.9,35.4,30.22,NE,38,0.0,0.0,64,0.00,,---,0.00,VWS V13.01,2013-02-01 09:42:00,
2013-02-01 04:47:00,46.8,35.3,30.22,NE,38,0.0,0.0,64,0.00,,---,0.00,VWS V13.01,2013-02-01 09:47:00,
2013-02-01 04:52:00,46.8,35.3,30.22,NE,38,0.0,0.0,64,0.00,,---,0.00,VWS V13.01,2013-02-01 09:52:00,
2013-02-01 04:57:00,46.6,35.1,30.22,NE,38,0.0,0.0,64,0.00,,---,0.00,VWS V13.01,2013-02-01 09:57:00,
2013-02-01 05:03:00,46.5,35.4,30.22,NE,38,0.0,0.0,65,0.00,,---,0.00,VWS V13.01,2013-02-01 10:03:00,
2013-02-01 05:08:00,46.4,35.3,30.22,NE,37,0.0,0.0,65,0.00,,---,0.00,VWS V13.01,2013-02-01 10:08:00,
2013-02-01 05:13:00,46.3,35.6,30.22,NE,37,0.0,0.0,66,0.00,,---,0.00,VWS V13.01,2013-02-01 10:13:00,
2013-02-01 05:18:00,46.3,35.6,30.23,NE,36,0.0,0.0,66,0.00,,---,0.00,VWS V13.01,2013-02-01 10:18:00,
2013-02-01 05:23:00,46.3,36.0,30.23,NE,36,0.0,0.0,67,0.00,,---,0.00,VWS V13.01,2013-02-01 10:23:00,
2013-02-01 05:28:00,46.2,35.9,30.23,NE,36,0.0,0.0,67,0.00,,---,0.00,VWS V13.01,2013-02-01 10:28:00,
2013-02-01 05:33:00,46.1,36.1,30.23,NE,36,0.0,0.0,68,0.00,,---,0.00,VWS V13.01,2013-02-01 10:33:00,
2013-02-01 05:38:00,46.1,36.1,30.23,NE,41,0.0,0.0,68,0.00,,---,0.00,VWS V13.01,2013-02-01 10:38:00,
2013-02-01 05:43:00,46.0,36.0,30.23,NE,41,0.0,0.0,68,0.00,,---,0.00,VWS V13.01,2013-02-01 10:43:00,
2013-02-01 05:48:00,45.9,36.0,30.24,NE,41,0.0,0.0,68,0.00,,---,0.00,VWS V13.01,2013-02-01 10:48:00,
2013-02-01 05:53:00,46.0,36.0,30.24,NE,41,0.0,0.0,68,0.00,,---,0.00,VWS V13.01,2013-02-01 10:53:00,
2013-02-01 05:58:00,46.1,35.8,30.24,NE,38,0.0,0.0,67,0.00,,---,0.00,VWS V13.01,2013-02-01 10:58:00,
2013-02-01 06:03:00,46.1,35.4,30.24,NE,38,0.0,0.0,66,0.00,,---,0.00,VWS V13.01,2013-02-01 11:03:00,
2013-02-01 06:08:00,46.1,35.0,30.24,NE,36,0.0,0.0,65,0.00,,---,0.00,VWS V13.01,2013-02-01 11:08:00,
2013-02-01 06:13:00,46.0,34.5,30.25,NE,36,0.0,0.0,64,0.00,,---,0.00,VWS V13.01,2013-02-01 11:13:00,
2013-02-01 06:18:00,46.0,34.5,30.25,NE,38,0.0,0.0,64,0.00,,---,0.00,VWS V13.01,2013-02-01 11:18:00,
2013-02-01 06:23:00,45.9,34.4,30.25,NE,38,0.0,0.0,64,0.00,,---,0.00,VWS V13.01,2013-02-01 11:23:00,
2013-02-01 06:28:00,45.9,34.4,30.25,NE,37,0.0,0.0,64,0.00,,---,0.00,VWS V13.01,2013-02-01 11:28:00,
2013-02-01 06:34:00,45.9,34.4,30.25,NE,36,0.0,0.0,64,0.00,,---,0.00,VWS V13.01,2013-02-01 11:34:00,
2013-02-01 06:39:00,45.8,33.9,30.26,NE,36,0.0,0.0,63,0.00,,---,0.00,VWS V13.01,2013-02-01 11:39:00,
2013-02-01 06:44:00,45.8,33.9,30.26,NE,36,0.0,0.0,63,0.00,,---,0.00,VWS V13.01,2013-02-01 11:44:00,
2013-02-01 06:49:00,45.6,34.1,30.26,NE,37,0.0,0.0,64,0.00,,---,0.00,VWS V13.01,2013-02-01 11:49:00,
2013-02-01 06:54:00,45.6,34.1,30.26,NE,37,0.0,0.0,64,0.00,,---,0.00,VWS V13.01,2013-02-01 11:54:00,
2013-02-01 06:59:00,45.5,34.0,30.26,NE,37,0.0,0.0,64,0.00,,---,0.00,VWS V13.01,2013-02-01 11:59:00,
2013-02-01 07:04:00,45.4,34.3,30.26,NE,37,0.0,0.0,65,0.00,,---,0.00,VWS V13.01,2013-02-01 12:04:00,
2013-02-01 07:09:00,45.2,34.2,30.26,NE,37,0.0,0.0,65,0.00,,---,0.00,VWS V13.01,2013-02-01 12:09:00,
2013-02-01 07:14:00,45.1,34.0,30.27,NE,37,0.0,0.0,65,0.00,,---,0.00,VWS V13.01,2013-02-01 12:14:00,
2013-02-01 07:19:00,45.0,34.3,30.27,NE,37,0.0,0.0,66,0.00,,---,0.00,VWS V13.01,2013-02-01 12:19:00,
2013-02-01 07:24:00,45.0,34.3,30.27,NE,37,0.0,0.0,66,0.00,,---,0.00,VWS V13.01,2013-02-01 12:24:00,
2013-02-01 07:29:00,45.0,34.3,30.27,NE,37,0.0,0.0,66,0.00,,---,0.00,VWS V13.01,2013-02-01 12:29:00,
2013-02-01 07:35:00,45.0,34.3,30.28,NE,37,0.0,0.0,66,0.00,,---,0.00,VWS V13.01,2013-02-01 12:35:00,
2013-02-01 07:40:00,45.1,34.0,30.28,NE,38,0.0,0.0,65,0.00,,---,0.00,VWS V13.01,2013-02-01 12:40:00,
2013-02-01 07:45:00,45.3,34.2,30.28,NE,38,0.0,0.0,65,0.00,,---,0.00,VWS V13.01,2013-02-01 12:45:00,
2013-02-01 07:50:00,45.6,34.5,30.28,NE,40,0.0,0.0,65,0.00,,---,0.00,VWS V13.01,2013-02-01 12:50:00,
2013-02-01 07:55:00,45.8,34.3,30.29,NE,40,0.0,0.0,64,0.00,,---,0.00,VWS V13.01,2013-02-01 12:55:00,
2013-02-01 08:00:00,46.0,34.5,30.29,NE,40,0.0,0.0,64,0.00,,---,0.00,VWS V13.01,2013-02-01 13:00:00,
2013-02-01 08:05:00,46.3,34.4,30.29,NE,40,0.0,0.0,63,0.00,,---,0.00,VWS V13.01,2013-02-01 13:05:00,
2013-02-01 08:10:00,46.9,34.6,30.29,NE,38,0.0,0.0,62,0.00,,---,0.00,VWS V13.01,2013-02-01 13:10:00,
2013-02-01 08:15:00,47.6,34.8,30.29,NE,38,0.0,0.0,61,0.00,,---,0.00,VWS V13.01,2013-02-01 13:15:00,
2013-02-01 08:21:00,48.2,35.0,30.30,NE,38,0.0,0.0,60,0.00,,---,0.00,VWS V13.01,2013-02-01 13:21:00,
2013-02-01 08:26:00,48.8,35.1,30.30,NE,38,0.0,0.0,59,0.00,,---,0.00,VWS V13.01,2013-02-01 13:26:00,
2013-02-01 08:31:00,49.6,35.5,30.30,NE,39,0.0,0.0,58,0.00,,---,0.00,VWS V13.01,2013-02-01 13:31:00,
2013-02-01 08:36:00,50.1,35.9,30.30,NE,34,0.0,5.0,58,0.00,,---,0.00,VWS V13.01,2013-02-01 13:36:00,
2013-02-01 08:41:00,50.6,36.4,30.31,NE,46,0.0,5.0,58,0.00,,---,0.00,VWS V13.01,2013-02-01 13:41:00,
2013-02-01 08:46:00,51.0,37.2,30.31,NE,43,0.0,5.0,59,0.00,,---,0.00,VWS V13.01,2013-02-01 13:46:00,
2013-02-01 08:51:00,51.5,37.7,30.31,NE,37,0.0,5.0,59,0.00,,---,0.00,VWS V13.01,2013-02-01 13:51:00,
2013-02-01 08:56:00,52.2,37.9,30.31,NE,42,0.0,6.0,58,0.00,,---,0.00,VWS V13.01,2013-02-01 13:56:00,
2013-02-01 09:02:00,53.1,38.7,30.31,NNE,18,0.0,6.0,58,0.00,,---,0.00,VWS V13.01,2013-02-01 14:02:00,
2013-02-01 09:07:00,53.8,38.9,30.31,North,5,1.0,6.0,57,0.00,,---,0.00,VWS V13.01,2013-02-01 14:07:00,
2013-02-01 09:12:00,54.6,39.7,30.31,North,11,0.0,6.0,57,0.00,,---,0.00,VWS V13.01,2013-02-01 14:12:00,
2013-02-01 09:17:00,55.1,39.7,30.31,NE,53,1.0,6.0,56,0.00,,---,0.00,VWS V13.01,2013-02-01 14:17:00,
2013-02-01 09:22:00,55.6,39.7,30.31,NNE,19,0.0,7.0,55,0.00,,---,0.00,VWS V13.01,2013-02-01 14:22:00,
2013-02-01 09:27:00,56.0,40.1,30.31,North,11,1.0,14.0,55,0.00,,---,0.00,VWS V13.01,2013-02-01 14:27:00,
2013-02-01 09:32:00,56.4,40.0,30.32,NNE,21,0.0,2.0,54,0.00,,---,0.00,VWS V13.01,2013-02-01 14:32:00,
2013-02-01 09:37:00,57.0,40.1,30.32,North,5,1.0,7.0,53,0.00,,---,0.00,VWS V13.01,2013-02-01 14:37:00,
2013-02-01 09:42:00,57.4,39.9,30.31,NNE,18,0.0,7.0,52,0.00,,---,0.00,VWS V13.01,2013-02-01 14:42:00,
2013-02-01 09:47:00,57.9,40.4,30.32,NNE,24,0.0,7.0,52,0.00,,---,0.00,VWS V13.01,2013-02-01 14:47:00,
2013-02-01 09:52:00,58.5,40.5,30.32,North,10,0.0,7.0,51,0.00,,---,0.00,VWS V13.01,2013-02-01 14:52:00,
2013-02-01 09:57:00,58.7,39.6,30.32,NNE,15,5.0,11.0,49,0.00,,---,0.00,VWS V13.01,2013-02-01 14:57:00,
2013-02-01 10:02:00,58.8,39.7,30.32,North,5,0.0,10.0,49,0.00,,---,0.00,VWS V13.01,2013-02-01 15:02:00,
2013-02-01 10:07:00,59.0,39.9,30.33,NNE,14,1.0,13.0,49,0.00,,---,0.00,VWS V13.01,2013-02-01 15:07:00,
2013-02-01 10:12:00,59.2,39.0,30.33,North,5,5.0,13.0,47,0.00,,---,0.00,VWS V13.01,2013-02-01 15:12:00,
2013-02-01 10:17:00,59.4,40.8,30.33,NNW,333,0.0,13.0,50,0.00,,---,0.00,VWS V13.01,2013-02-01 15:17:00,
2013-02-01 10:22:00,59.4,40.2,30.33,North,355,0.0,13.0,49,0.00,,---,0.00,VWS V13.01,2013-02-01 15:22:00,
2013-02-01 10:27:00,59.9,40.2,30.33,North,5,5.0,13.0,48,0.00,,---,0.00,VWS V13.01,2013-02-01 15:27:00,
2013-02-01 10:32:00,60.4,40.1,30.33,North,5,7.0,10.0,47,0.00,,---,0.00,VWS V13.01,2013-02-01 15:32:00,
2013-02-01 10:38:00,60.7,40.4,30.33,East,79,1.0,12.0,47,0.00,,---,0.00,VWS V13.01,2013-02-01 15:38:00,
2013-02-01 10:43:00,61.0,39.5,30.33,North,5,0.0,12.0,45,0.00,,---,0.00,VWS V13.01,2013-02-01 15:43:00,
2013-02-01 10:48:00,61.6,39.5,30.32,NE,40,2.0,12.0,44,0.00,,---,0.00,VWS V13.01,2013-02-01 15:48:00,
2013-02-01 10:53:00,62.0,39.3,30.32,ENE,70,3.0,12.0,43,0.00,,---,0.00,VWS V13.01,2013-02-01 15:53:00,
2013-02-01 10:58:00,62.3,39.5,30.32,NE,53,0.0,12.0,43,0.00,,---,0.00,VWS V13.01,2013-02-01 15:58:00,
2013-02-01 11:03:00,62.5,37.2,30.32,NE,43,1.0,6.0,39,0.00,,---,0.00,VWS V13.01,2013-02-01 16:03:00,
2013-02-01 11:08:00,63.0,39.0,30.32,NNE,30,0.0,10.0,41,0.00,,---,0.00,VWS V13.01,2013-02-01 16:08:00,
2013-02-01 11:13:00,63.4,38.0,30.32,NE,42,0.0,10.0,39,0.00,,---,0.00,VWS V13.01,2013-02-01 16:13:00,
2013-02-01 11:18:00,63.7,38.3,30.32,NNW,346,0.0,10.0,39,0.00,,---,0.00,VWS V13.01,2013-02-01 16:18:00,
2013-02-01 11:23:00,63.9,38.5,30.32,NE,41,0.0,10.0,39,0.00,,---,0.00,VWS V13.01,2013-02-01 16:23:00,
2013-02-01 11:28:00,64.4,40.2,30.32,NW,323,0.0,10.0,41,0.00,,---,0.00,VWS V13.01,2013-02-01 16:28:00,
2013-02-01 11:33:00,64.2,40.7,30.32,North,5,0.0,11.0,42,0.00,,---,0.00,VWS V13.01,2013-02-01 16:33:00,
2013-02-01 11:38:00,64.1,41.2,30.32,North,5,0.0,11.0,43,0.00,,---,0.00,VWS V13.01,2013-02-01 16:38:00,
2013-02-01 11:43:00,64.1,41.2,30.32,NNW,346,7.0,11.0,43,0.00,,---,0.00,VWS V13.01,2013-02-01 16:43:00,
2013-02-01 11:48:00,64.2,40.7,30.32,North,355,2.0,11.0,42,0.00,,---,0.00,VWS V13.01,2013-02-01 16:48:00,
2013-02-01 11:54:00,64.1,41.2,30.32,NNE,22,0.0,11.0,43,0.00,,---,0.00,VWS V13.01,2013-02-01 16:54:00,
2013-02-01 11:59:00,64.0,39.8,30.32,North,355,0.0,11.0,41,0.00,,---,0.00,VWS V13.01,2013-02-01 16:59:00,
2013-02-01 12:04:00,64.3,40.7,30.32,NNW,344,0.0,2.0,42,0.00,,---,0.00,VWS V13.01,2013-02-01 17:04:00,
2013-02-01 12:09:00,64.1,39.3,30.31,WNW,302,0.0,2.0,40,0.00,,---,0.00,VWS V13.01,2013-02-01 17:09:00,
2013-02-01 12:14:00,63.8,39.7,30.31,NNE,33,0.0,7.0,41,0.00,,---,0.00,VWS V13.01,2013-02-01 17:14:00,
2013-02-01 12:19:00,64.3,39.5,30.31,North,5,0.0,8.0,40,0.00,,---,0.00,VWS V13.01,2013-02-01 17:19:00,
2013-02-01 12:24:00,64.6,39.8,30.31,NNW,333,0.0,11.0,40,0.00,,---,0.00,VWS V13.01,2013-02-01 17:24:00,
2013-02-01 12:29:00,64.3,40.1,30.31,NNW,338,0.0,11.0,41,0.00,,---,0.00,VWS V13.01,2013-02-01 17:29:00,
2013-02-01 12:34:00,64.0,39.8,30.31,North,5,1.0,13.0,41,0.00,,---,0.00,VWS V13.01,2013-02-01 17:34:00,
2013-02-01 12:39:00,64.1,38.7,30.30,NNW,340,1.0,13.0,39,0.00,,---,0.00,VWS V13.01,2013-02-01 17:39:00,
2013-02-01 12:44:00,64.1,38.0,30.30,NNW,331,0.0,13.0,38,0.00,,---,0.00,VWS V13.01,2013-02-01 17:44:00,
2013-02-01 12:49:00,63.9,38.5,30.30,NNW,338,0.0,13.0,39,0.00,,---,0.00,VWS V13.01,2013-02-01 17:49:00,
2013-02-01 12:54:00,64.4,38.3,30.30,NNE,12,12.0,13.0,38,0.00,,---,0.00,VWS V13.01,2013-02-01 17:54:00,
2013-02-01 13:00:00,64.7,37.8,30.30,NNW,346,0.0,1.0,37,0.00,,---,0.00,VWS V13.01,2013-02-01 18:00:00,
2013-02-01 13:05:00,65.0,38.8,30.30,NNW,332,0.0,2.0,38,0.00,,---,0.00,VWS V13.01,2013-02-01 18:05:00,
2013-02-01 13:10:00,64.9,38.0,30.29,North,5,1.0,4.0,37,0.00,,---,0.00,VWS V13.01,2013-02-01 18:10:00,
2013-02-01 13:15:00,64.5,37.7,30.29,NW,316,0.0,4.0,37,0.00,,---,0.00,VWS V13.01,2013-02-01 18:15:00,
2013-02-01 13:20:00,64.9,38.0,30.29,NW,315,0.0,4.0,37,0.00,,---,0.00,VWS V13.01,2013-02-01 18:20:00,
2013-02-01 13:25:00,65.3,39.1,30.28,NNW,330,0.0,4.0,38,0.00,,---,0.00,VWS V13.01,2013-02-01 18:25:00,
2013-02-01 13:30:00,65.6,38.0,30.28,NNW,340,0.0,1.0,36,0.00,,---,0.00,VWS V13.01,2013-02-01 18:30:00,
2013-02-01 13:35:00,65.7,38.0,30.27,North,360,0.0,3.0,36,0.00,,---,0.00,VWS V13.01,2013-02-01 18:35:00,
2013-02-01 13:40:00,65.7,39.4,30.27,NNW,334,0.0,4.0,38,0.00,,---,0.00,VWS V13.01,2013-02-01 18:40:00,
2013-02-01 13:45:00,65.6,38.7,30.27,NNE,22,3.0,7.0,37,0.00,,---,0.00,VWS V13.01,2013-02-01 18:45:00,
2013-02-01 13:50:00,65.9,38.2,30.27,North,11,0.0,9.0,36,0.00,,---,0.00,VWS V13.01,2013-02-01 18:50:00,
2013-02-01 13:55:00,65.6,38.0,30.27,North,9,0.0,9.0,36,0.00,,---,0.00,VWS V13.01,2013-02-01 18:55:00,
2013-02-01 14:01:00,64.8,37.9,30.26,WNW,284,0.0,3.0,37,0.00,,---,0.00,VWS V13.01,2013-02-01 19:01:00,
2013-02-01 14:06:00,65.0,38.1,30.26,NNW,330,0.0,3.0,37,0.00,,---,0.00,VWS V13.01,2013-02-01 19:06:00,
2013-02-01 14:11:00,65.3,37.7,30.26,NNE,12,3.0,5.0,36,0.00,,---,0.00,VWS V13.01,2013-02-01 19:11:00,
2013-02-01 14:16:00,65.1,36.1,30.26,North,5,0.0,5.0,34,0.00,,---,0.00,VWS V13.01,2013-02-01 19:16:00,
2013-02-01 14:21:00,65.3,36.2,30.26,North,355,0.0,8.0,34,0.00,,---,0.00,VWS V13.01,2013-02-01 19:21:00,
2013-02-01 14:26:00,65.2,36.9,30.26,North,5,4.0,8.0,35,0.00,,---,0.00,VWS V13.01,2013-02-01 19:26:00,
2013-02-01 14:31:00,65.3,38.4,30.25,NNW,345,0.0,2.0,37,0.00,,---,0.00,VWS V13.01,2013-02-01 19:31:00,
2013-02-01 14:36:00,65.5,37.9,30.26,North,5,0.0,5.0,36,0.00,,---,0.00,VWS V13.01,2013-02-01 19:36:00,
2013-02-01 14:41:00,65.7,38.0,30.26,NNW,337,0.0,10.0,36,0.00,,---,0.00,VWS V13.01,2013-02-01 19:41:00,
2013-02-01 14:46:00,65.8,38.1,30.26,NNE,13,0.0,10.0,36,0.00,,---,0.00,VWS V13.01,2013-02-01 19:46:00,
2013-02-01 14:51:00,65.6,38.0,30.26,NW,308,0.0,10.0,36,0.00,,---,0.00,VWS V13.01,2013-02-01 19:51:00,
2013-02-01 14:56:00,65.3,35.5,30.26,North,11,0.0,10.0,33,0.00,,---,0.00,VWS V13.01,2013-02-01 19:56:00,
2013-02-01 15:01:00,65.2,36.9,30.26,NNW,348,1.0,4.0,35,0.00,,---,0.00,VWS V13.01,2013-02-01 20:01:00,
2013-02-01 15:06:00,65.4,36.3,30.26,NNE,19,0.0,5.0,34,0.00,,---,0.00,VWS V13.01,2013-02-01 20:06:00,
2013-02-01 15:12:00,65.5,36.4,30.26,North,9,0.0,11.0,34,0.00,,---,0.00,VWS V13.01,2013-02-01 20:12:00,
2013-02-01 15:17:00,65.3,34.7,30.25,NE,40,0.0,11.0,32,0.00,,---,0.00,VWS V13.01,2013-02-01 20:17:00,
2013-02-01 15:22:00,65.2,36.2,30.25,North,5,0.0,11.0,34,0.00,,---,0.00,VWS V13.01,2013-02-01 20:22:00,
2013-02-01 15:27:00,64.9,36.6,30.25,North,5,0.0,11.0,35,0.00,,---,0.00,VWS V13.01,2013-02-01 20:27:00,
2013-02-01 15:32:00,64.4,37.6,30.25,NW,318,0.0,2.0,37,0.00,,---,0.00,VWS V13.01,2013-02-01 20:32:00,
2013-02-01 15:37:00,64.1,37.3,30.25,North,355,0.0,2.0,37,0.00,,---,0.00,VWS V13.01,2013-02-01 20:37:00,
2013-02-01 15:42:00,63.7,37.0,30.25,NNW,344,0.0,2.0,37,0.00,,---,0.00,VWS V13.01,2013-02-01 20:42:00,
2013-02-01 15:47:00,64.1,37.3,30.25,NNE,22,0.0,2.0,37,0.00,,---,0.00,VWS V13.01,2013-02-01 20:47:00,
2013-02-01 15:53:00,64.3,36.1,30.25,North,5,0.0,3.0,35,0.00,,---,0.00,VWS V13.01,2013-02-01 20:53:00,
2013-02-01 15:58:00,64.1,36.6,30.25,NW,321,0.0,4.0,36,0.00,,---,0.00,VWS V13.01,2013-02-01 20:58:00,
2013-02-01 16:03:00,63.8,35.7,30.25,NW,321,2.0,4.0,35,0.00,,---,0.00,VWS V13.01,2013-02-01 21:03:00,
2013-02-01 16:08:00,63.3,37.3,30.25,North,5,0.0,4.0,38,0.00,,---,0.00,VWS V13.01,2013-02-01 21:08:00,
2013-02-01 16:13:00,63.4,35.3,30.25,NNE,27,2.0,5.0,35,0.00,,---,0.00,VWS V13.01,2013-02-01 21:13:00,
2013-02-01 16:19:00,63.2,37.2,30.25,WNW,290,0.0,5.0,38,0.00,,---,0.00,VWS V13.01,2013-02-01 21:19:00,
2013-02-01 16:24:00,62.9,39.5,30.25,NNW,337,0.0,5.0,42,0.00,,---,0.00,VWS V13.01,2013-02-01 21:24:00,
2013-02-01 16:29:00,62.8,40.6,30.25,NW,326,0.0,5.0,44,0.00,,---,0.00,VWS V13.01,2013-02-01 21:29:00,
2013-02-01 16:34:00,62.4,40.8,30.24,North,351,0.0,4.0,45,0.00,,---,0.00,VWS V13.01,2013-02-01 21:34:00,
2013-02-01 16:39:00,62.0,40.4,30.25,NW,322,0.0,4.0,45,0.00,,---,0.00,VWS V13.01,2013-02-01 21:39:00,
2013-02-01 16:44:00,61.9,39.8,30.25,NNE,18,0.0,4.0,44,0.00,,---,0.00,VWS V13.01,2013-02-01 21:44:00,
2013-02-01 16:49:00,62.0,40.4,30.25,North,5,0.0,4.0,45,0.00,,---,0.00,VWS V13.01,2013-02-01 21:49:00,
2013-02-01 16:54:00,62.1,41.1,30.25,NW,321,0.0,4.0,46,0.00,,---,0.00,VWS V13.01,2013-02-01 21:54:00,
2013-02-01 16:59:00,61.9,41.5,30.25,North,5,0.0,4.0,47,0.00,,---,0.00,VWS V13.01,2013-02-01 21:59:00,
2013-02-01 17:04:00,61.8,41.9,30.25,NW,318,0.0,1.0,48,0.00,,---,0.00,VWS V13.01,2013-02-01 22:04:00,
2013-02-01 17:09:00,61.8,41.9,30.25,WNW,283,0.0,3.0,48,0.00,,---,0.00,VWS V13.01,2013-02-01 22:09:00,
2013-02-01 17:15:00,61.6,42.3,30.25,North,360,0.0,3.0,49,0.00,,---,0.00,VWS V13.01,2013-02-01 22:15:00,
2013-02-01 17:20:00,61.6,42.3,30.25,North,11,0.0,3.0,49,0.00,,---,0.00,VWS V13.01,2013-02-01 22:20:00,
2013-02-01 17:25:00,61.5,42.7,30.25,NW,326,0.0,3.0,50,0.00,,---,0.00,VWS V13.01,2013-02-01 22:25:00,
2013-02-01 17:30:00,61.2,43.0,30.25,North,355,0.0,0.0,51,0.00,,---,0.00,VWS V13.01,2013-02-01 22:30:00,
2013-02-01 17:35:00,60.9,43.2,30.25,NW,311,0.0,0.0,52,0.00,,---,0.00,VWS V13.01,2013-02-01 22:35:00,
2013-02-01 17:40:00,60.6,43.4,30.25,NW,304,0.0,0.0,53,0.00,,---,0.00,VWS V13.01,2013-02-01 22:40:00,
2013-02-01 17:45:00,60.3,43.6,30.25,NW,306,0.0,0.0,54,0.00,,---,0.00,VWS V13.01,2013-02-01 22:45:00,
2013-02-01 17:50:00,60.1,43.9,30.25,NW,325,0.0,0.0,55,0.00,,---,0.00,VWS V13.01,2013-02-01 22:50:00,
2013-02-01 17:55:00,59.9,43.7,30.25,NNW,336,0.0,0.0,55,0.00,,---,0.00,VWS V13.01,2013-02-01 22:55:00,
2013-02-01 18:00:00,59.6,43.9,30.25,NNW,335,0.0,0.0,56,0.00,,---,0.00,VWS V13.01,2013-02-01 23:00:00,
2013-02-01 18:06:00,59.3,44.1,30.25,NNW,335,0.0,0.0,57,0.00,,---,0.00,VWS V13.01,2013-02-01 23:06:00,
2013-02-01 18:10:00,58.9,44.2,30.25,NNW,335,0.0,0.0,58,0.00,,---,0.00,VWS V13.01,2013-02-01 23:10:00,
2013-02-01 18:15:00,58.6,43.9,30.25,NNW,335,0.0,0.0,58,0.00,,---,0.00,VWS V13.01,2013-02-01 23:15:00,
2013-02-01 18:21:00,58.3,43.6,30.25,NNW,335,0.0,0.0,58,0.00,,---,0.00,VWS V13.01,2013-02-01 23:21:00,
2013-02-01 18:26:00,58.0,44.2,30.25,NNW,335,0.0,0.0,60,0.00,,---,0.00,VWS V13.01,2013-02-01 23:26:00,
2013-02-01 18:31:00,57.7,43.9,30.25,NNW,335,0.0,0.0,60,0.00,,---,0.00,VWS V13.01,2013-02-01 23:31:00,
2013-02-01 18:36:00,57.3,44.0,30.25,NNW,335,0.0,0.0,61,0.00,,---,0.00,VWS V13.01,2013-02-01 23:36:00,
2013-02-01 18:41:00,57.0,43.7,30.25,NNW,335,0.0,0.0,61,0.00,,---,0.00,VWS V13.01,2013-02-01 23:41:00,
2013-02-01 18:46:00,56.7,43.8,30.25,NNW,335,0.0,0.0,62,0.00,,---,0.00,VWS V13.01,2013-02-01 23:46:00,
2013-02-01 18:51:00,56.4,44.0,30.24,NNW,335,0.0,0.0,63,0.00,,---,0.00,VWS V13.01,2013-02-01 23:51:00,
2013-02-01 18:56:00,56.0,44.0,30.24,NNW,335,0.0,0.0,64,0.00,,---,0.00,VWS V13.01,2013-02-01 23:56:00,
2013-02-01 19:01:00,55.5,43.9,30.24,NNW,335,0.0,0.0,65,0.00,,---,0.00,VWS V13.01,2013-02-02 00:01:00,
2013-02-01 19:06:00,55.1,44.0,30.24,NNW,335,0.0,0.0,66,0.00,,---,0.00,VWS V13.01,2013-02-02 00:06:00,
2013-02-01 19:11:00,54.8,44.1,30.24,NNW,335,0.0,0.0,67,0.00,,---,0.00,VWS V13.01,2013-02-02 00:11:00,
2013-02-01 19:16:00,54.4,43.7,30.24,NNW,335,0.0,0.0,67,0.00,,---,0.00,VWS V13.01,2013-02-02 00:16:00,
2013-02-01 19:22:00,54.0,44.1,30.25,NNW,335,0.0,0.0,69,0.00,,---,0.00,VWS V13.01,2013-02-02 00:22:00,
2013-02-01 19:27:00,53.7,43.8,30.24,NNW,335,0.0,0.0,69,0.00,,---,0.00,VWS V13.01,2013-02-02 00:27:00,
2013-02-01 19:32:00,53.3,44.2,30.25,NNW,335,0.0,0.0,71,0.00,,---,0.00,VWS V13.01,2013-02-02 00:32:00,
2013-02-01 19:37:00,53.1,44.0,30.24,NNW,335,0.0,0.0,71,0.00,,---,0.00,VWS V13.01,2013-02-02 00:37:00,
2013-02-01 19:42:00,53.0,44.6,30.24,NNW,335,0.0,0.0,73,0.00,,---,0.00,VWS V13.01,2013-02-02 00:42:00,
2013-02-01 19:47:00,53.0,45.0,30.24,NNW,335,0.0,0.0,74,0.00,,---,0.00,VWS V13.01,2013-02-02 00:47:00,
2013-02-01 19:52:00,52.9,44.8,30.24,NNW,335,0.0,0.0,74,0.00,,---,0.00,VWS V13.01,2013-02-02 00:52:00,
2013-02-01 19:57:00,53.0,45.0,30.24,NNW,335,0.0,0.0,74,0.00,,---,0.00,VWS V13.01,2013-02-02 00:57:00,
2013-02-01 20:02:00,53.0,45.0,30.24,NNW,335,0.0,0.0,74,0.00,,---,0.00,VWS V13.01,2013-02-02 01:02:00,
2013-02-01 20:07:00,53.0,45.0,30.24,NNW,335,0.0,0.0,74,0.00,,---,0.00,VWS V13.01,2013-02-02 01:07:00,
2013-02-01 20:12:00,53.1,45.0,30.25,NNW,335,0.0,0.0,74,0.00,,---,0.00,VWS V13.01,2013-02-02 01:12:00,
2013-02-01 20:18:00,53.1,45.0,30.24,NNW,335,0.0,0.0,74,0.00,,---,0.00,VWS V13.01,2013-02-02 01:18:00,
2013-02-01 20:23:00,53.2,45.5,30.24,NNW,335,0.0,0.0,75,0.00,,---,0.00,VWS V13.01,2013-02-02 01:23:00,
2013-02-01 20:27:00,53.3,45.2,30.24,NNW,335,0.0,0.0,74,0.00,,---,0.00,VWS V13.01,2013-02-02 01:27:00,
2013-02-01 20:33:00,53.5,45.4,30.24,NNW,335,0.0,0.0,74,0.00,,---,0.00,VWS V13.01,2013-02-02 01:33:00,
2013-02-01 20:38:00,53.6,45.5,30.24,NNW,335,0.0,0.0,74,0.00,,---,0.00,VWS V13.01,2013-02-02 01:38:00,
2013-02-01 20:43:00,53.6,46.2,30.24,NNW,335,0.0,0.0,76,0.00,,---,0.00,VWS V13.01,2013-02-02 01:43:00,
2013-02-01 20:48:00,53.6,46.2,30.25,NNW,335,0.0,0.0,76,0.00,,---,0.00,VWS V13.01,2013-02-02 01:48:00,
2013-02-01 20:53:00,53.6,45.5,30.24,NNW,335,0.0,0.0,74,0.00,,---,0.00,VWS V13.01,2013-02-02 01:53:00,
2013-02-01 20:58:00,53.6,45.5,30.25,NNW,335,0.0,0.0,74,0.00,,---,0.00,VWS V13.01,2013-02-02 01:58:00,
2013-02-01 21:03:00,53.6,45.5,30.25,NNW,335,0.0,0.0,74,0.00,,---,0.00,VWS V13.01,2013-02-02 02:03:00,
2013-02-01 21:08:00,53.5,45.4,30.25,NNW,335,0.0,0.0,74,0.00,,---,0.00,VWS V13.01,2013-02-02 02:08:00,
2013-02-01 21:13:00,53.5,45.4,30.25,NNW,335,0.0,0.0,74,0.00,,---,0.00,VWS V13.01,2013-02-02 02:13:00,
2013-02-01 21:18:00,53.5,45.4,30.25,NNW,335,0.0,0.0,74,0.00,,---,0.00,VWS V13.01,2013-02-02 02:18:00,
2013-02-01 21:23:00,53.7,45.3,30.25,NNW,335,0.0,0.0,73,0.00,,---,0.00,VWS V13.01,2013-02-02 02:23:00,
2013-02-01 21:28:00,53.7,45.3,30.25,NNW,335,0.0,0.0,73,0.00,,---,0.00,VWS V13.01,2013-02-02 02:28:00,
2013-02-01 21:33:00,53.9,45.1,30.25,NNW,335,0.0,0.0,72,0.00,,---,0.00,VWS V13.01,2013-02-02 02:33:00,
2013-02-01 21:38:00,54.0,45.2,30.25,NNW,335,0.0,0.0,72,0.00,,---,0.00,VWS V13.01,2013-02-02 02:38:00,
2013-02-01 21:43:00,54.1,45.3,30.26,NNW,335,0.0,0.0,72,0.00,,---,0.00,VWS V13.01,2013-02-02 02:43:00,
2013-02-01 21:48:00,54.1,45.3,30.26,NNW,335,0.0,0.0,72,0.00,,---,0.00,VWS V13.01,2013-02-02 02:48:00,
2013-02-01 21:53:00,54.2,45.4,30.26,NNW,338,0.0,0.0,72,0.00,,---,0.00,VWS V13.01,2013-02-02 02:53:00,
2013-02-01 21:58:00,54.3,45.5,30.26,NNW,338,0.0,0.0,72,0.00,,---,0.00,VWS V13.01,2013-02-02 02:58:00,
2013-02-01 22:03:00,54.2,45.4,30.26,NNW,338,0.0,0.0,72,0.00,,---,0.00,VWS V13.01,2013-02-02 03:03:00,
2013-02-01 22:09:00,54.1,45.3,30.26,NNW,338,0.0,0.0,72,0.00,,---,0.00,VWS V13.01,2013-02-02 03:09:00,
2013-02-01 22:14:00,53.9,45.1,30.26,NNW,338,0.0,0.0,72,0.00,,---,0.00,VWS V13.01,2013-02-02 03:14:00,
2013-02-01 22:19:00,53.8,45.0,30.26,NNW,338,0.0,0.0,72,0.00,,---,0.00,VWS V13.01,2013-02-02 03:19:00,
2013-02-01 22:24:00,53.6,44.8,30.26,NNW,338,0.0,0.0,72,0.00,,---,0.00,VWS V13.01,2013-02-02 03:24:00,
2013-02-01 22:29:00,53.3,44.5,30.26,NNW,338,0.0,0.0,72,0.00,,---,0.00,VWS V13.01,2013-02-02 03:29:00,
2013-02-01 22:34:00,53.2,44.4,30.26,NNW,338,0.0,0.0,72,0.00,,---,0.00,VWS V13.01,2013-02-02 03:34:00,
2013-02-01 22:39:00,53.2,44.4,30.26,North,355,0.0,0.0,72,0.00,,---,0.00,VWS V13.01,2013-02-02 03:39:00,
2013-02-01 22:44:00,53.3,44.2,30.26,North,355,0.0,0.0,71,0.00,,---,0.00,VWS V13.01,2013-02-02 03:44:00,
2013-02-01 22:49:00,53.7,44.5,30.26,North,355,0.0,0.0,71,0.00,,---,0.00,VWS V13.01,2013-02-02 03:49:00,
2013-02-01 22:54:00,54.2,45.0,30.26,North,355,0.0,0.0,71,0.00,,---,0.00,VWS V13.01,2013-02-02 03:54:00,
2013-02-01 22:59:00,54.8,45.2,30.25,North,355,0.0,0.0,70,0.00,,---,0.00,VWS V13.01,2013-02-02 03:59:00,
2013-02-01 23:04:00,55.0,45.4,30.25,North,355,0.0,0.0,70,0.00,,---,0.00,VWS V13.01,2013-02-02 04:04:00,
2013-02-01 23:10:00,55.1,45.5,30.26,North,355,0.0,0.0,70,0.00,,---,0.00,VWS V13.01,2013-02-02 04:10:00,
2013-02-01 23:15:00,55.2,45.6,30.25,North,355,0.0,0.0,70,0.00,,---,0.00,VWS V13.01,2013-02-02 04:15:00,
2013-02-01 23:20:00,55.3,45.3,30.26,North,355,0.0,0.0,69,0.00,,---,0.00,VWS V13.01,2013-02-02 04:20:00,
2013-02-01 23:25:00,55.4,45.4,30.25,North,355,0.0,0.0,69,0.00,,---,0.00,VWS V13.01,2013-02-02 04:25:00,
2013-02-01 23:30:00,55.4,45.4,30.25,North,355,0.0,0.0,69,0.00,,---,0.00,VWS V13.01,2013-02-02 04:30:00,
2013-02-01 23:35:00,55.4,45.4,30.25,North,355,0.0,0.0,69,0.00,,---,0.00,VWS V13.01,2013-02-02 04:35:00,
2013-02-01 23:40:00,55.4,45.4,30.25,North,355,0.0,0.0,69,0.00,,---,0.00,VWS V13.01,2013-02-02 04:40:00,
2013-02-01 23:45:00,55.2,45.2,30.25,North,355,0.0,0.0,69,0.00,,---,0.00,VWS V13.01,2013-02-02 04:45:00,
2013-02-01 23:50:00,55.2,45.6,30.25,North,5,0.0,2.0,70,0.00,,---,0.00,VWS V13.01,2013-02-02 04:50:00,
2013-02-01 23:55:00,55.3,45.7,30.25,NNE,21,0.0,2.0,70,0.00,,---,0.00,VWS V13.01,2013-02-02 04:55:00,